ANZ101 NZAA-YSSY

Flight info

Callsign ANZ101
Flight time N/A
Altitude 36000
Route VELMO DCT 38S163E DCT PLUGA DCT RIKNI N774 MARLN
Aircraft A21N/M-SDE2E3FGHIRWXY/LB1

Departure

Time 2026-05-06 18:55
Airport Auckland International Airport (NZAA)

Arrival

Time N/A
Airport Sydney Kingsford Smith International Airport (YSSY)
Time Latitude Longitude Altitude Speed Heading
2026-05-06 18:18 -37.00637 174.79288 28 ft 0 kts 305°
2026-05-06 18:39 -37.00638 174.79288 28 ft 1 kts 305°
2026-05-06 18:39 -37.00646 174.79307 28 ft 4 kts 244°
2026-05-06 18:40 -37.00620 174.79317 28 ft 1 kts 182°
2026-05-06 18:40 -37.00620 174.79318 28 ft 0 kts 182°
2026-05-06 18:43 -37.00622 174.79317 28 ft 1 kts 182°
2026-05-06 18:43 -37.00629 174.79317 28 ft 1 kts 182°
2026-05-06 18:43 -37.00636 174.79317 28 ft 0 kts 181°
2026-05-06 18:43 -37.00641 174.79317 28 ft 2 kts 181°
2026-05-06 18:44 -37.00653 174.79317 28 ft 0 kts 181°
2026-05-06 18:44 -37.00677 174.79316 28 ft 7 kts 181°
2026-05-06 18:44 -37.00702 174.79319 28 ft 0 kts 167°
2026-05-06 18:44 -37.00704 174.79320 28 ft 1 kts 171°
2026-05-06 18:45 -37.00711 174.79320 28 ft 2 kts 179°
2026-05-06 18:45 -37.00735 174.79304 28 ft 6 kts 230°
2026-05-06 18:45 -37.00755 174.79233 28 ft 9 kts 251°
2026-05-06 18:45 -37.00778 174.79146 28 ft 8 kts 251°
2026-05-06 18:46 -37.00803 174.79059 28 ft 13 kts 250°
2026-05-06 18:46 -37.00817 174.79010 28 ft 3 kts 250°
2026-05-06 18:46 -37.00829 174.78967 28 ft 7 kts 250°
2026-05-06 18:46 -37.00844 174.78909 28 ft 8 kts 251°
2026-05-06 18:47 -37.00862 174.78843 28 ft 8 kts 250°
2026-05-06 18:47 -37.00883 174.78770 28 ft 9 kts 251°
2026-05-06 18:47 -37.00905 174.78691 28 ft 9 kts 249°
2026-05-06 18:47 -37.00925 174.78619 28 ft 9 kts 252°
2026-05-06 18:48 -37.00946 174.78538 28 ft 10 kts 251°
2026-05-06 18:48 -37.00966 174.78469 29 ft 7 kts 250°
2026-05-06 18:48 -37.00991 174.78411 29 ft 8 kts 223°
2026-05-06 18:48 -37.01042 174.78377 29 ft 9 kts 204°
2026-05-06 18:49 -37.01090 174.78328 29 ft 9 kts 233°
2026-05-06 18:49 -37.01116 174.78250 29 ft 10 kts 252°
2026-05-06 18:49 -37.01136 174.78173 29 ft 9 kts 251°
2026-05-06 18:49 -37.01156 174.78097 29 ft 10 kts 251°
2026-05-06 18:50 -37.01179 174.78015 29 ft 10 kts 250°
2026-05-06 18:50 -37.01203 174.77931 29 ft 11 kts 250°
2026-05-06 18:50 -37.01229 174.77840 29 ft 12 kts 250°
2026-05-06 18:50 -37.01257 174.77741 29 ft 12 kts 250°
2026-05-06 18:51 -37.01286 174.77635 29 ft 13 kts 250°
2026-05-06 18:51 -37.01317 174.77523 29 ft 14 kts 251°
2026-05-06 18:51 -37.01350 174.77405 29 ft 15 kts 251°
2026-05-06 18:51 -37.01382 174.77285 29 ft 15 kts 251°
2026-05-06 18:52 -37.01415 174.77166 29 ft 14 kts 251°
2026-05-06 18:52 -37.01469 174.77107 29 ft 10 kts 193°
2026-05-06 18:52 -37.01538 174.77090 29 ft 10 kts 191°
2026-05-06 18:52 -37.01595 174.77086 29 ft 7 kts 153°
2026-05-06 18:53 -37.01613 174.77143 29 ft 7 kts 82°
2026-05-06 18:53 -37.01606 174.77172 29 ft 1 kts 72°
2026-05-06 18:53 -37.01605 174.77176 29 ft 0 kts 72°
2026-05-06 18:53 -37.01604 174.77177 29 ft 0 kts 72°
2026-05-06 18:54 -37.01603 174.77183 29 ft 1 kts 72°
2026-05-06 18:54 -37.01598 174.77200 29 ft 4 kts 72°
2026-05-06 18:54 -37.01511 174.77515 29 ft 75 kts 71°
2026-05-06 18:54 -37.01254 174.78445 29 ft 150 kts 71°
2026-05-06 18:55 -37.00854 174.79866 297 ft 183 kts 70°
2026-05-06 18:55 -37.00460 174.81357 1103 ft 183 kts 70°
2026-05-06 18:55 -37.00035 174.82889 1933 ft 190 kts 60°
2026-05-06 18:55 -36.99084 174.84096 2299 ft 211 kts 21°
2026-05-06 18:56 -36.97563 174.84171 2685 ft 234 kts 342°
2026-05-06 18:56 -36.96257 174.82891 3397 ft 251 kts 306°
2026-05-06 18:56 -36.95787 174.80748 4212 ft 267 kts 270°
2026-05-06 18:56 -36.96371 174.78520 5119 ft 277 kts 240°
2026-05-06 18:57 -36.97595 174.76642 6041 ft 282 kts 228°
2026-05-06 18:57 -36.99046 174.74961 6966 ft 285 kts 224°
2026-05-06 18:57 -37.00508 174.73317 7799 ft 287 kts 229°
2026-05-06 18:57 -37.01614 174.71260 8610 ft 286 kts 249°
2026-05-06 18:58 -37.02279 174.68924 9460 ft 285 kts 259°
2026-05-06 18:58 -37.02686 174.66482 10280 ft 289 kts 264°
2026-05-06 18:58 -37.02976 174.63908 10649 ft 309 kts 266°
2026-05-06 18:58 -37.03242 174.61152 10942 ft 330 kts 266°
2026-05-06 18:59 -37.03537 174.58226 11275 ft 346 kts 266°
2026-05-06 18:59 -37.03696 174.55180 11838 ft 352 kts 270°
2026-05-06 18:59 -37.03791 174.52098 12522 ft 356 kts 271°
2026-05-06 18:59 -37.03858 174.48991 13260 ft 359 kts 271°
2026-05-06 19:00 -37.03906 174.45889 13970 ft 362 kts 271°
2026-05-06 19:00 -37.03944 174.42717 14623 ft 366 kts 271°
2026-05-06 19:00 -37.03975 174.39516 15252 ft 369 kts 271°
2026-05-06 19:00 -37.04005 174.36290 15844 ft 372 kts 271°
2026-05-06 19:01 -37.04035 174.33034 16452 ft 376 kts 271°
2026-05-06 19:01 -37.04066 174.29743 17035 ft 379 kts 271°
2026-05-06 19:01 -37.04096 174.26610 17616 ft 381 kts 271°
2026-05-06 19:01 -37.04127 174.23357 18164 ft 385 kts 271°
2026-05-06 19:02 -37.04159 174.19850 18708 ft 388 kts 271°
2026-05-06 19:02 -37.04189 174.16499 19151 ft 392 kts 271°